Location: ??????
(56.0120°N, 39.1740°E)
Time: 20:38:05
(UTC+00:00)

Cosmos 2251 Rocket - Pass Details

Date: 14 April 2026
Orbit: 761 x 788 km, 74.0° (Epoch: 11 May)

Event Time Altitude Azimuth Distance (km) Brightness Sun altitude
Rises 21:11:08 0° 330° (NNW) 3,269 7.8 -24.3°
Reaches altitude 10° 21:13:31 10° 329° (NNW) 2,341 6.8 -24.3°
Maximum altitude 21:18:49 71° 246° (WSW) 830 3.5 -24.3°
Enters shadow 21:19:20 66° 207° (SSW) 856 3.4 -24.3°
